SCP
0 0 0 0 0 0 0 0 0 0 0 0 0 0 0 0 0 0 0 0 0 0 0 0 0 0 0 0 0 0 0 0 0 0 0 0 0 0 0 0 0 0 0
0 0 0 0 0 0 0 0 0 0 0 0 0 0 0 0 0 0 0 0 0 0 0 0 0 0 0 0 0 0 0 0 0 0 0 0 0 0 0 0 0 0 0
0 0 0 -0 -0 0 0 0 0 0 0 0 0 0 0 0 0 0 0 0 0 0 0 0 0 0 0 0 0 0 0 0 0 0 0 0 0 0 0 0 0 0 0
0 0 0 0 0 0 0 0 0 0 0 0 0 0 0 0 0 0 0 0 0 0 0 0 0 0 0 0 0 0 0 0 0 0 0 0 0 0 0 0 0 0 0
0 0 0 0 0 0 0 0 0 0 0 0 0 0 0 0 0 0 0 0 0 0 0 0 0 0 0 0 0 0 0 0 0 0 0 0 0 0 0 0 0 0 0
0 0 0 0 0 0 0 0 0 0 0 0 0 0 0 0 0 0 0 0 0 0 0 0 0 0 0 0 0 0 0 0 0 0 0 0 0 0 0 0 0 0 0
0 0 0 0 0 0 0 0 0 0 0 0 0 0 0 0 0 0 0 0 0 0 0 0 0 0 0 0 0 0 0 0 0 0 0 0 0 0 0 0 0 0 0
0 0 0 -0 0 0 0 0 0 0 0 0 0 0 0 0 0 0 0 0 0 0 0 0 0 0 0 0 0 0 0 0 0 0 0 0 0 0 0 0 0 0 0
0 -0 -0 0 0 0 0 0 0 0 0 0 0 0 0 0 0 0 0 0 0 0 0 -0 -0 0 0 0 0 0 0 0 0 0 0 0 0 0 0 0 0 0 0
-0 0 0 0 0 0 0 0 0 0 0 0 0 0 0 0 0 0 0 0 0 0 0 0 0 0 0 0 0 0 0 0 0 0 0 0 0 0 0 0 0 0 0
0 0 0 0 0 0 0 0 0 0 0 0 0 0 0 0 0 0 0 0 0 0 0 0 0 0 0 0 0 0 0 0 0 0 0 0 0 0 0 0 -0 0 0
0 0 0 0 0 0 0 0 0 0 0 0 0 0 0 0 0 0 0 0 0 0 0 0 0 0 0 0 0 0 0 0 0 0 0 0 0 0 0 0 0 0 0
0 0 0 0 0 0 0 0 0 0 0 0 0 0 0 0 0 0 0 0 0 0 0 0 0 0 0 0 0 0 0 0 0 0 0 0 0 0 0 0 0 0 0
0 0 0 0 0 0 0 0 0 0 0 0 0 0 0 0 0 0 0 0 0 0 0 0 0 0 0 0 0 0 0 0 0 0 0 0 0 0 0 0 0 0 0
0 0 0 0 0 0 0 0 0 0 0 0 0 0 0 0 0 0 0 0 0 0 0 0 0 0 0 0 0 0 0 0 0 0 0 0 0 0 0 0 0 0 0
0 0 0 0 0 0 0 0 0 0 0 0 0 0 0 0 0 0 0 0 0 0 0 0 0 0 0 0 0 0 0 0 0 0 0 0 0 0 0 0 0 0 0
0 0 0 0 0 0 0 0 0 0 0 0 0 0 0 0 0 0 0 0 0 0 0 0 0 0 0 0 0 0 0 0 0 0 0 0 0 0 0 0 0 0 0
0 0 0 0 0 0 0 0 0 0 0 0 0 0 0 0 0 0 0 0 0 0 0 0 0 0 0 0 0 0 0 0 0 0 0 0 0 0 0 0 0 0 0
0 0 0 0 0 0 0 0 0 0 0 0 0 0 0 0 0 0 0 0 0 0 0 0 0 0 0 0 0 0 0 0 0 0 0 0 0 0 0 0 0 0 0
0 0 0 0 0 0 0 0 0 0 0 0 0 0 0 0 0 0 0 0 0 0 0 0 0 0 0 0 0 0 0 0 0 0 0 0 0 0 0 0 0 0 0
0 0 0 0 0 0 0 0 0 0 0 0 0 0 0 0 0 0 0 0 0 0 0 0 0 0 0 0 0 0 0 0 0 0 0 0 0 0 0 0 0 0 0
0 0 0 0 0 0 0 0 0 0 0 0 0 0 0 0 0 0 0 0 0 0 0 0 0 0 0 0 0 0 0 0 0 0 0 0 0 0 0 0 0 0 0
0 0 0 0 0 0 0 0 0 0 0 0 0 0 0 0 0 0 0 0 0 0 0 0 0 0 0 0 0 0 0 0 0 0 0 0 0 0 0 0 0 0 0
0 0 0 0 0 0 0 0 0 0 0 0 0 0 0 0 0 0 0 0 0 0 0 0 0 0 0 0 0 0 0 0 0 0 0 0 0 0 0 0 0 0 0
0 0 0 0 0 0 0 0 0 0 0 0 0 0 0 0 0 0 0 0 0 0 0 0 0 0 0 0 0 0 0 0 0 0 0 0 0 0 0 0 0 0 0
0 0 0 0 0 0 0 0 0 0 0 0 0 0 0 0 0 0 0 0 0 0 0 0 0 0 0 0 0 0 0 0 0 0 0 0 0 0 0 0 0 0 0
Wind_Speed_500mb
64 64 60 53 51 46 41 34 33 27 23 23 26 30 35 32 30 29 28 27 24 22 21 21 25 28 32 31 29 27 27 27 31 37 43 49 53 57 61 63 70 64 65
69 67 57 55 46 47 42 38 34 28 28 28 28 33 39 35 32 25 24 22 21 19 18 18 24 29 32 34 35 33 28 20 26 34 40 48 55 66 70 70 75 70 67
69 65 65 50 52 48 44 40 33 32 34 33 28 34 38 38 33 27 26 23 20 19 17 20 25 30 34 39 39 31 26 25 27 38 41 53 60 67 73 72 76 75 74
73 69 61 60 53 46 44 40 38 39 39 38 39 41 39 37 33 32 26 20 15 16 14 19 26 34 41 40 34 28 26 27 31 41 42 50 53 60 65 79 80 72 73
72 70 63 59 52 48 44 42 43 43 43 41 40 39 38 33 30 26 23 17 13 15 15 23 32 37 36 36 27 24 27 28 30 34 40 49 55 60 67 74 72 73 69
71 66 65 62 57 53 47 45 44 42 41 36 31 30 32 33 30 20 18 18 15 18 16 28 34 33 33 27 19 17 21 25 30 30 39 45 48 53 59 67 67 72 63
73 70 71 65 59 51 48 49 48 43 34 32 31 31 35 32 26 20 17 17 17 19 25 31 36 38 36 31 24 18 16 24 26 28 35 38 43 45 52 60 67 62 54
78 76 65 62 56 54 53 52 50 43 32 28 34 34 34 33 26 22 18 19 13 16 24 33 38 38 36 32 26 20 20 23 24 27 31 35 37 41 44 56 62 57 65
77 70 67 61 59 56 53 48 47 45 38 35 36 35 30 32 26 21 15 11 12 8 17 30 36 33 34 30 24 20 18 16 20 23 24 34 30 34 37 53 63 57 65
77 68 61 60 56 54 51 45 42 40 42 35 37 31 30 27 28 21 11 7 6 9 19 28 28 29 36 37 32 30 23 25 25 23 25 28 33 33 33 43 61 50 55
75 66 63 58 56 56 48 39 46 45 40 32 33 32 28 23 21 17 15 10 6 12 16 25 29 32 34 35 37 32 30 23 23 25 27 37 37 36 32 42 58 46 57
76 72 66 61 60 53 52 49 46 39 42 30 31 32 25 19 14 13 10 6 7 10 17 23 25 28 27 29 32 28 22 21 27 27 30 43 44 44 45 43 48 39 46
82 76 68 58 53 49 52 50 45 30 37 41 33 26 20 17 16 10 5 8 10 14 17 20 22 21 21 24 28 32 22 28 34 35 35 40 43 38 37 38 41 33 39
79 74 65 60 56 52 43 47 48 46 42 33 32 28 18 9 9 8 8 10 14 17 14 14 15 13 13 19 24 32 25 29 35 37 33 33 36 40 44 45 51 38 45
83 75 68 64 61 64 54 47 41 38 35 37 36 26 17 7 6 10 11 15 16 15 11 8 7 10 13 16 24 31 27 28 34 36 32 33 40 43 44 45 53 42 42
78 69 66 67 66 58 58 55 45 39 37 39 31 21 16 8 11 13 16 19 17 8 7 10 12 12 17 18 23 27 30 27 29 32 33 31 36 44 45 46 48 60 41
75 74 70 66 59 56 50 44 48 44 37 33 25 18 10 14 18 20 23 17 11 7 12 13 15 13 19 17 21 25 27 23 20 27 34 31 34 40 44 46 50 53 46
72 68 63 56 52 47 43 36 37 40 39 32 25 18 23 24 24 24 21 13 13 14 17 14 16 14 16 15 14 16 19 22 20 23 30 32 34 40 44 47 48 48 55
63 54 48 46 47 45 38 40 36 34 32 30 34 37 31 29 26 21 14 8 13 13 15 19 17 16 10 7 8 15 20 21 17 20 28 38 32 37 40 40 42 46 53
56 45 45 45 47 40 34 33 34 35 39 43 41 36 33 27 20 13 11 10 14 17 14 13 13 10 10 13 15 18 19 19 15 18 28 33 30 32 38 39 42 45 50
47 49 51 49 45 39 31 27 31 40 45 43 36 33 33 27 12 6 10 9 15 18 11 2 5 9 14 17 18 20 22 22 16 19 25 27 32 32 31 34 38 39 39
54 52 52 46 40 38 36 30 35 41 37 38 35 36 31 24 12 7 8 12 13 13 8 1 8 11 16 19 20 22 23 22 17 18 19 24 34 26 28 32 39 39 36
53 42 50 40 43 42 37 33 29 39 36 32 34 41 29 20 15 9 8 9 8 8 4 6 9 13 16 19 19 20 20 23 22 22 22 22 30 21 25 30 37 38 34
55 40 45 49 43 39 35 32 28 33 30 24 47 39 30 27 20 12 10 10 6 3 3 10 13 14 16 16 17 17 18 20 19 19 21 22 23 18 23 24 33 39 33
53 28 43 43 45 35 40 35 29 32 31 33 39 32 31 28 19 15 14 9 6 4 2 8 15 15 15 16 16 16 16 16 16 16 20 22 19 23 24 25 28 33 34
48 35 32 30 48 36 36 32 30 37 43 43 39 30 31 21 14 15 16 13 6 2 1 9 13 13 15 14 14 14 12 9 8 13 17 18 17 22 30 25 24 32 33
Wind_Direction_500mb
178 173 170 173 178 177 178 169 161 152 150 144 135 136 141 130 119 119 116 112 106 96 80 65 54 37 26 22 19 11 12 10 1 359 354 351 358 6 12 17 18 15 10
172 173 174 172 175 176 176 165 155 150 137 131 133 134 138 137 130 129 124 111 101 89 71 54 38 26 16 11 9 14 18 21 3 356 0 8 8 13 16 13 14 19 12
171 175 168 173 179 171 166 156 148 145 143 145 142 132 133 131 133 126 115 104 96 85 64 33 21 16 6 7 6 14 23 23 18 2 4 9 12 9 12 13 11 16 17
169 175 165 172 170 161 158 155 152 153 149 144 140 141 141 140 137 130 123 114 101 80 48 29 18 7 1 4 7 14 17 15 15 12 15 7 7 8 12 5 7 18 15
169 165 163 164 162 160 159 152 151 153 147 154 155 152 150 151 141 139 136 127 105 77 50 25 16 7 359 358 6 4 8 17 18 20 17 6 5 5 7 3 5 11 13
169 163 164 163 161 161 154 150 149 148 158 157 157 158 158 156 146 141 132 113 84 66 44 13 9 5 8 6 360 342 349 20 13 18 17 3 3 1 1 2 6 8 5
168 165 163 161 160 157 155 152 150 153 161 147 148 151 156 152 146 140 123 90 65 47 20 11 8 7 8 11 14 4 12 24 22 18 7 6 360 1 358 0 9 10 12
162 165 162 162 158 157 156 155 155 159 158 152 148 150 151 142 137 130 115 85 62 29 5 2 3 7 10 17 25 39 54 56 32 19 16 4 355 356 360 1 3 8 12
164 164 164 161 160 159 159 158 166 167 143 142 142 148 148 139 137 131 120 103 84 50 1 359 5 10 17 26 30 48 73 80 53 33 16 17 16 356 1 2 2 3 7
162 162 161 165 162 157 157 155 163 149 140 142 143 146 143 143 145 144 121 113 94 25 7 10 18 31 36 38 33 37 55 51 37 24 18 21 27 21 7 2 5 8 10
159 161 164 164 159 156 148 147 141 140 144 149 139 142 141 145 146 139 125 127 64 25 22 29 39 43 44 37 31 38 51 48 42 37 48 39 30 34 23 9 14 19 24
160 164 164 160 157 149 147 149 149 153 146 148 143 137 138 138 136 129 120 96 64 38 43 47 50 48 46 32 24 39 53 51 50 52 53 41 36 36 27 19 19 25 22
163 162 161 157 146 155 157 156 161 166 155 150 144 143 136 113 73 84 73 78 60 60 65 57 64 57 48 40 20 27 46 50 47 45 44 43 37 39 28 13 15 34 32
162 159 157 149 151 155 148 141 139 145 145 148 170 180 146 117 33 96 96 83 83 91 83 60 76 71 62 53 21 33 48 49 47 43 44 45 41 37 30 16 21 23 33
161 156 154 152 158 155 151 157 166 166 172 175 177 175 167 146 104 111 101 104 107 95 77 62 87 60 52 45 33 32 42 46 48 42 41 41 42 36 30 24 19 24 32
155 156 157 158 162 161 162 163 166 168 159 174 175 192 193 176 128 120 108 102 109 89 50 59 75 59 52 52 46 29 36 46 46 42 40 37 41 37 29 25 24 20 25
162 160 163 167 166 165 167 175 176 168 169 174 179 189 190 167 142 122 110 115 102 75 48 58 69 65 55 62 48 32 31 43 42 47 39 41 38 37 33 25 25 17 23
161 163 166 168 169 167 174 175 177 182 183 184 187 175 152 144 132 122 122 114 82 54 53 54 60 58 55 68 47 23 15 27 37 45 45 43 38 35 33 28 25 20 17
163 165 160 156 157 158 157 159 161 168 170 166 155 146 141 138 137 136 145 142 110 83 51 52 53 60 64 67 16 11 11 26 42 52 46 43 36 36 33 30 27 23 16
161 165 153 152 156 152 144 145 142 140 143 139 138 136 131 130 130 132 137 129 121 115 81 51 54 44 27 21 16 22 28 39 67 61 46 42 46 35 33 30 28 24 19
163 167 161 170 166 167 160 157 151 139 141 143 142 136 131 139 148 138 138 132 115 136 131 96 14 22 22 31 38 34 34 44 71 65 51 37 44 33 34 34 32 24 22
172 172 168 166 170 176 168 151 146 149 149 155 154 144 148 157 178 183 134 115 113 135 170 71 28 32 39 47 40 36 38 54 63 51 49 29 43 32 31 38 36 25 26
171 169 171 164 174 175 167 159 151 163 167 171 171 159 151 161 180 168 132 122 110 103 99 61 58 57 50 46 42 45 47 51 54 46 39 29 35 36 32 43 37 25 25
170 167 176 169 170 171 173 167 155 161 160 142 153 154 160 175 178 165 147 139 130 122 74 80 77 68 59 51 46 48 55 58 49 34 21 33 22 38 31 49 41 28 41
165 159 177 174 173 172 177 171 162 158 156 148 152 162 171 180 187 166 160 162 156 151 337 32 67 66 53 48 48 49 52 57 46 22 20 36 38 44 42 53 49 41 30
169 164 189 186 175 183 174 171 173 165 163 170 171 177 180 184 183 171 168 173 178 180 45 66 68 58 50 42 46 52 58 61 29 6 21 43 55 36 38 38 57 45 26
Wind_Speed_850mb
64 64 60 53 51 46 41 34 33 27 23 23 26 30 35 32 30 29 28 27 24 22 21 21 25 28 32 31 29 27 27 27 31 37 43 49 53 57 61 63 70 64 65
69 67 57 55 46 47 42 38 34 28 28 28 28 33 39 35 32 25 24 22 21 19 18 18 24 29 32 34 35 33 28 20 26 34 40 48 55 66 70 70 75 70 67
69 65 65 50 52 48 44 40 33 32 34 33 28 34 38 38 33 27 26 23 20 19 17 20 25 30 34 39 39 31 26 25 27 38 41 53 60 67 73 72 76 75 74
73 69 61 60 53 46 44 40 38 39 39 38 39 41 39 37 33 32 26 20 15 16 14 19 26 34 41 40 34 28 26 27 31 41 42 50 53 60 65 79 80 72 73
72 70 63 59 52 48 44 42 43 43 43 41 40 39 38 33 30 26 23 17 13 15 15 23 32 37 36 36 27 24 27 28 30 34 40 49 55 60 67 74 72 73 69
71 66 65 62 57 53 47 45 44 42 41 36 31 30 32 33 30 20 18 18 15 18 16 28 34 33 33 27 19 17 21 25 30 30 39 45 48 53 59 67 67 72 63
73 70 71 65 59 51 48 49 48 43 34 32 31 31 35 32 26 20 17 17 17 19 25 31 36 38 36 31 24 18 16 24 26 28 35 38 43 45 52 60 67 62 54
78 76 65 62 56 54 53 52 50 43 32 28 34 34 34 33 26 22 18 19 13 16 24 33 38 38 36 32 26 20 20 23 24 27 31 35 37 41 44 56 62 57 65
77 70 67 61 59 56 53 48 47 45 38 35 36 35 30 32 26 21 15 11 12 8 17 30 36 33 34 30 24 20 18 16 20 23 24 34 30 34 37 53 63 57 65
77 68 61 60 56 54 51 45 42 40 42 35 37 31 30 27 28 21 11 7 6 9 19 28 28 29 36 37 32 30 23 25 25 23 25 28 33 33 33 43 61 50 55
75 66 63 58 56 56 48 39 46 45 40 32 33 32 28 23 21 17 15 10 6 12 16 25 29 32 34 35 37 32 30 23 23 25 27 37 37 36 32 42 58 46 57
76 72 66 61 60 53 52 49 46 39 42 30 31 32 25 19 14 13 10 6 7 10 17 23 25 28 27 29 32 28 22 21 27 27 30 43 44 44 45 43 48 39 46
82 76 68 58 53 49 52 50 45 30 37 41 33 26 20 17 16 10 5 8 10 14 17 20 22 21 21 24 28 32 22 28 34 35 35 40 43 38 37 38 41 33 39
79 74 65 60 56 52 43 47 48 46 42 33 32 28 18 9 9 8 8 10 14 17 14 14 15 13 13 19 24 32 25 29 35 37 33 33 36 40 44 45 51 38 45
83 75 68 64 61 64 54 47 41 38 35 37 36 26 17 7 6 10 11 15 16 15 11 8 7 10 13 16 24 31 27 28 34 36 32 33 40 43 44 45 53 42 42
78 69 66 67 66 58 58 55 45 39 37 39 31 21 16 8 11 13 16 19 17 8 7 10 12 12 17 18 23 27 30 27 29 32 33 31 36 44 45 46 48 60 41
75 74 70 66 59 56 50 44 48 44 37 33 25 18 10 14 18 20 23 17 11 7 12 13 15 13 19 17 21 25 27 23 20 27 34 31 34 40 44 46 50 53 46
72 68 63 56 52 47 43 36 37 40 39 32 25 18 23 24 24 24 21 13 13 14 17 14 16 14 16 15 14 16 19 22 20 23 30 32 34 40 44 47 48 48 55
63 54 48 46 47 45 38 40 36 34 32 30 34 37 31 29 26 21 14 8 13 13 15 19 17 16 10 7 8 15 20 21 17 20 28 38 32 37 40 40 42 46 53
56 45 45 45 47 40 34 33 34 35 39 43 41 36 33 27 20 13 11 10 14 17 14 13 13 10 10 13 15 18 19 19 15 18 28 33 30 32 38 39 42 45 50
47 49 51 49 45 39 31 27 31 40 45 43 36 33 33 27 12 6 10 9 15 18 11 2 5 9 14 17 18 20 22 22 16 19 25 27 32 32 31 34 38 39 39
54 52 52 46 40 38 36 30 35 41 37 38 35 36 31 24 12 7 8 12 13 13 8 1 8 11 16 19 20 22 23 22 17 18 19 24 34 26 28 32 39 39 36
53 42 50 40 43 42 37 33 29 39 36 32 34 41 29 20 15 9 8 9 8 8 4 6 9 13 16 19 19 20 20 23 22 22 22 22 30 21 25 30 37 38 34
55 40 45 49 43 39 35 32 28 33 30 24 47 39 30 27 20 12 10 10 6 3 3 10 13 14 16 16 17 17 18 20 19 19 21 22 23 18 23 24 33 39 33
53 28 43 43 45 35 40 35 29 32 31 33 39 32 31 28 19 15 14 9 6 4 2 8 15 15 15 16 16 16 16 16 16 16 20 22 19 23 24 25 28 33 34
48 35 32 30 48 36 36 32 30 37 43 43 39 30 31 21 14 15 16 13 6 2 1 9 13 13 15 14 14 14 12 9 8 13 17 18 17 22 30 25 24 32 33
Wind_Direction_850mb
178 173 170 173 178 177 178 169 161 152 150 144 135 136 141 130 119 119 116 112 106 96 80 65 54 37 26 22 19 11 12 10 1 359 354 351 358 6 12 17 18 15 10
172 173 174 172 175 176 176 165 155 150 137 131 133 134 138 137 130 129 124 111 101 89 71 54 38 26 16 11 9 14 18 21 3 356 0 8 8 13 16 13 14 19 12
171 175 168 173 179 171 166 156 148 145 143 145 142 132 133 131 133 126 115 104 96 85 64 33 21 16 6 7 6 14 23 23 18 2 4 9 12 9 12 13 11 16 17
169 175 165 172 170 161 158 155 152 153 149 144 140 141 141 140 137 130 123 114 101 80 48 29 18 7 1 4 7 14 17 15 15 12 15 7 7 8 12 5 7 18 15
169 165 163 164 162 160 159 152 151 153 147 154 155 152 150 151 141 139 136 127 105 77 50 25 16 7 359 358 6 4 8 17 18 20 17 6 5 5 7 3 5 11 13
169 163 164 163 161 161 154 150 149 148 158 157 157 158 158 156 146 141 132 113 84 66 44 13 9 5 8 6 360 342 349 20 13 18 17 3 3 1 1 2 6 8 5
168 165 163 161 160 157 155 152 150 153 161 147 148 151 156 152 146 140 123 90 65 47 20 11 8 7 8 11 14 4 12 24 22 18 7 6 360 1 358 0 9 10 12
162 165 162 162 158 157 156 155 155 159 158 152 148 150 151 142 137 130 115 85 62 29 5 2 3 7 10 17 25 39 54 56 32 19 16 4 355 356 360 1 3 8 12
164 164 164 161 160 159 159 158 166 167 143 142 142 148 148 139 137 131 120 103 84 50 1 359 5 10 17 26 30 48 73 80 53 33 16 17 16 356 1 2 2 3 7
162 162 161 165 162 157 157 155 163 149 140 142 143 146 143 143 145 144 121 113 94 25 7 10 18 31 36 38 33 37 55 51 37 24 18 21 27 21 7 2 5 8 10
159 161 164 164 159 156 148 147 141 140 144 149 139 142 141 145 146 139 125 127 64 25 22 29 39 43 44 37 31 38 51 48 42 37 48 39 30 34 23 9 14 19 24
160 164 164 160 157 149 147 149 149 153 146 148 143 137 138 138 136 129 120 96 64 38 43 47 50 48 46 32 24 39 53 51 50 52 53 41 36 36 27 19 19 25 22
163 162 161 157 146 155 157 156 161 166 155 150 144 143 136 113 73 84 73 78 60 60 65 57 64 57 48 40 20 27 46 50 47 45 44 43 37 39 28 13 15 34 32
162 159 157 149 151 155 148 141 139 145 145 148 170 180 146 117 33 96 96 83 83 91 83 60 76 71 62 53 21 33 48 49 47 43 44 45 41 37 30 16 21 23 33
161 156 154 152 158 155 151 157 166 166 172 175 177 175 167 146 104 111 101 104 107 95 77 62 87 60 52 45 33 32 42 46 48 42 41 41 42 36 30 24 19 24 32
155 156 157 158 162 161 162 163 166 168 159 174 175 192 193 176 128 120 108 102 109 89 50 59 75 59 52 52 46 29 36 46 46 42 40 37 41 37 29 25 24 20 25
162 160 163 167 166 165 167 175 176 168 169 174 179 189 190 167 142 122 110 115 102 75 48 58 69 65 55 62 48 32 31 43 42 47 39 41 38 37 33 25 25 17 23
161 163 166 168 169 167 174 175 177 182 183 184 187 175 152 144 132 122 122 114 82 54 53 54 60 58 55 68 47 23 15 27 37 45 45 43 38 35 33 28 25 20 17
163 165 160 156 157 158 157 159 161 168 170 166 155 146 141 138 137 136 145 142 110 83 51 52 53 60 64 67 16 11 11 26 42 52 46 43 36 36 33 30 27 23 16
161 165 153 152 156 152 144 145 142 140 143 139 138 136 131 130 130 132 137 129 121 115 81 51 54 44 27 21 16 22 28 39 67 61 46 42 46 35 33 30 28 24 19
163 167 161 170 166 167 160 157 151 139 141 143 142 136 131 139 148 138 138 132 115 136 131 96 14 22 22 31 38 34 34 44 71 65 51 37 44 33 34 34 32 24 22
172 172 168 166 170 176 168 151 146 149 149 155 154 144 148 157 178 183 134 115 113 135 170 71 28 32 39 47 40 36 38 54 63 51 49 29 43 32 31 38 36 25 26
171 169 171 164 174 175 167 159 151 163 167 171 171 159 151 161 180 168 132 122 110 103 99 61 58 57 50 46 42 45 47 51 54 46 39 29 35 36 32 43 37 25 25
170 167 176 169 170 171 173 167 155 161 160 142 153 154 160 175 178 165 147 139 130 122 74 80 77 68 59 51 46 48 55 58 49 34 21 33 22 38 31 49 41 28 41
165 159 177 174 173 172 177 171 162 158 156 148 152 162 171 180 187 166 160 162 156 151 337 32 67 66 53 48 48 49 52 57 46 22 20 36 38 44 42 53 49 41 30
169 164 189 186 175 183 174 171 173 165 163 170 171 177 180 184 183 171 168 173 178 180 45 66 68 58 50 42 46 52 58 61 29 6 21 43 55 36 38 38 57 45 26